Buckeye, AZ

12:27 AM MST on January 19, 2017 (GMT -0700)
Buckeye Municipal

Weather History for KBXK - November, 2012

Change the Weather History Date:

Saturday, November 10, 2012

  Actual Average (KGYR) Record (KGYR)
Temperature  
Mean Temperature 52 °F -  
Max Temperature 62 °F 73 °F 89 °F (1996)
Min Temperature 42 °F 49 °F 42 °F (1998)
Degree Days  
Heating Degree Days 13    
Growing Degree Days 2 (Base 50)    
Moisture  
Dew Point 26 °F    
Average Humidity 36    
Maximum Humidity 57    
Minimum Humidity 22    
Precipitation  
Precipitation 0.00 in - - ()
Sea Level Pressure  
Sea Level Pressure 29.97 in    
Wind  
Wind Speed 8 mph (West)    
Max Wind Speed 17 mph    
Max Gust Speed 26 mph    
Visibility 10 miles    
Events      
Averages and records for this station are not official NWS values.
T = Trace of Precipitation, MM = Missing Value Source: NWS Daily Summary

Daily Weather History Graph

Daily Weather History Graph

Search for Another Location

Airport or City:

Trip Planner

Search our weather history database for the weather conditions in past years. The results will help you decide how hot, cold, wet, or windy it might be!

Date:

Astronomy

Nov. 10, 2012 Rise Set
Actual Time 6:58 AM MST 5:31 PM MST
Civil Twilight 6:31 AM MST 5:57 PM MST
Nautical Twilight 6:02 AM MST 6:26 PM MST
Astronomical Twilight 5:32 AM MST 6:56 PM MST
Moon 3:17 AM MST (11/10) 3:12 PM MST (11/10)
Length of Visible Light 11h 25m
Length of Day
10h 33m
Waning Crescent, 14% of the Moon is Illuminated
Nov 10
Waning Crescent
Nov 13
New
Nov 20
First Quarter
Nov 28
Full
Dec 6
Last Quarter

Hourly Weather History & Observations

Time (MST) Temp. Windchill Dew Point Humidity Pressure Visibility Wind Dir Wind Speed Gust Speed Precip Events Conditions
3:15 AM 55.4 °F - 28.4 °F 36% 29.86 in 10.0 mi WSW 12.7 mph - N/A   Unknown
3:35 AM 55.4 °F - 28.4 °F 36% 29.86 in 10.0 mi WSW 8.1 mph - N/A   Overcast
3:55 AM 53.6 °F - 28.4 °F 38% 29.87 in 10.0 mi WSW 6.9 mph - N/A   Overcast
4:15 AM 51.8 °F - 28.4 °F 41% 29.88 in 10.0 mi WSW 8.1 mph - N/A   Scattered Clouds
4:35 AM 50.0 °F - 30.2 °F 47% 29.88 in 10.0 mi WSW 8.1 mph - N/A   Scattered Clouds
4:55 AM 50.0 °F - 30.2 °F 47% 29.89 in 10.0 mi West 4.6 mph - N/A   Partly Cloudy
5:15 AM 50.0 °F - 28.4 °F 43% 29.90 in 10.0 mi WNW 4.6 mph - N/A   Clear
5:35 AM 46.4 °F - 28.4 °F 50% 29.91 in 10.0 mi Calm Calm - N/A   Clear
5:55 AM 46.4 °F - 30.2 °F 53% 29.92 in 10.0 mi Calm Calm - N/A   Clear
6:15 AM 46.4 °F 44.3 °F 28.4 °F 50% 29.92 in 10.0 mi NNE 4.6 mph - N/A   Clear
6:35 AM 46.4 °F 45.2 °F 28.4 °F 50% 29.93 in 10.0 mi NNE 3.5 mph - N/A   Clear
6:55 AM 44.6 °F - 28.4 °F 53% 29.94 in 10.0 mi Calm Calm - N/A   Clear
7:15 AM 42.8 °F - 28.4 °F 57% 29.95 in 10.0 mi Calm Calm - N/A   Clear
7:35 AM 44.6 °F - 28.4 °F 53% 29.96 in 10.0 mi Calm Calm - N/A   Clear
7:55 AM 46.4 °F - 28.4 °F 50% 29.96 in 10.0 mi Calm Calm - N/A   Clear
8:35 AM 50.0 °F - 28.4 °F 43% 29.98 in 10.0 mi SSW 3.5 mph - N/A   Clear
8:55 AM 53.6 °F - 32.0 °F 44% 29.99 in 10.0 mi SW 6.9 mph - N/A   Clear
9:15 AM 55.4 °F - 30.2 °F 38% 29.99 in 10.0 mi WSW 9.2 mph - N/A   Clear
9:35 AM 57.2 °F - 28.4 °F 33% 30.00 in 10.0 mi West 10.4 mph - N/A   Clear
9:55 AM 57.2 °F - 28.4 °F 33% 30.00 in 10.0 mi West 9.2 mph - N/A   Clear
10:15 AM 57.2 °F - 28.4 °F 33% 30.00 in 10.0 mi West 9.2 mph - N/A   Clear
10:35 AM 57.2 °F - 28.4 °F 33% 30.00 in 10.0 mi SW 8.1 mph - N/A   Clear
10:55 AM 59.0 °F - 26.6 °F 29% 30.00 in 10.0 mi WNW 9.2 mph - N/A   Clear
11:15 AM 59.0 °F - 26.6 °F 29% 30.00 in 10.0 mi West 6.9 mph - N/A   Partly Cloudy
11:35 AM 59.0 °F - 28.4 °F 31% 30.00 in 10.0 mi West 10.4 mph - N/A   Mostly Cloudy
11:55 AM 57.2 °F - 28.4 °F 33% 30.00 in 10.0 mi SSW 8.1 mph - N/A   Scattered Clouds
12:15 PM 59.0 °F - 28.4 °F 31% 29.99 in 10.0 mi West 10.4 mph - N/A   Partly Cloudy
12:35 PM 59.0 °F - 28.4 °F 31% 29.97 in 10.0 mi WSW 6.9 mph - N/A   Partly Cloudy
12:55 PM 60.8 °F - 26.6 °F 27% 29.97 in 10.0 mi West 10.4 mph - N/A   Scattered Clouds
1:15 PM 59.0 °F - 26.6 °F 29% 29.96 in 10.0 mi SW 11.5 mph 19.6 mph N/A   Partly Cloudy
1:35 PM 60.8 °F - 26.6 °F 27% 29.94 in 10.0 mi WSW 11.5 mph - N/A   Scattered Clouds
1:55 PM 60.8 °F - 26.6 °F 27% 29.93 in 10.0 mi SW 6.9 mph - N/A   Scattered Clouds
2:15 PM 60.8 °F - 26.6 °F 27% 29.92 in 10.0 mi WSW 11.5 mph 17.3 mph N/A   Mostly Cloudy
2:35 PM 62.6 °F - 24.8 °F 24% 29.92 in 10.0 mi West 15.0 mph 19.6 mph N/A   Mostly Cloudy
2:55 PM 60.8 °F - 26.6 °F 27% 29.92 in 10.0 mi NW 11.5 mph 17.3 mph N/A   Partly Cloudy
3:15 PM 60.8 °F - 24.8 °F 25% 29.92 in 10.0 mi NW 12.7 mph 17.3 mph N/A   Scattered Clouds
3:35 PM 60.8 °F - 23.0 °F 23% 29.92 in 10.0 mi WNW 13.8 mph - N/A   Mostly Cloudy
3:55 PM 59.0 °F - 24.8 °F 27% 29.92 in 10.0 mi West 13.8 mph - N/A   Mostly Cloudy
4:15 PM 59.0 °F - 24.8 °F 27% 29.93 in 7.0 mi WSW 9.2 mph - N/A   Mostly Cloudy
4:35 PM 59.0 °F - 24.8 °F 27% 29.94 in 10.0 mi NW 17.3 mph 23.0 mph N/A   Mostly Cloudy
4:55 PM 59.0 °F - 23.0 °F 25% 29.95 in 10.0 mi West 11.5 mph 26.5 mph N/A   Mostly Cloudy
5:15 PM 59.0 °F - 19.4 °F 22% 29.95 in 10.0 mi WNW 13.8 mph 19.6 mph N/A   Scattered Clouds
5:35 PM 57.2 °F - 23.0 °F 27% 29.95 in 10.0 mi West 11.5 mph 18.4 mph N/A   Scattered Clouds
5:55 PM 57.2 °F - 23.0 °F 27% 29.96 in 10.0 mi WNW 10.4 mph - N/A   Mostly Cloudy
6:15 PM 57.2 °F - 23.0 °F 27% 29.97 in 10.0 mi West 8.1 mph - N/A   Overcast
6:35 PM 57.2 °F - 23.0 °F 27% 29.98 in 10.0 mi WNW 8.1 mph - N/A   Overcast
6:55 PM 55.4 °F - 23.0 °F 29% 29.98 in 10.0 mi West 9.2 mph - N/A   Overcast
7:15 PM 55.4 °F - 23.0 °F 29% 29.99 in 10.0 mi West 9.2 mph - N/A   Mostly Cloudy
7:35 PM 55.4 °F - 23.0 °F 29% 29.99 in 10.0 mi WNW 11.5 mph - N/A   Unknown
7:55 PM 53.6 °F - 23.0 °F 30% 30.00 in 10.0 mi WNW 10.4 mph - N/A   Overcast
8:15 PM 51.8 °F - 23.0 °F 33% 30.01 in 10.0 mi WNW 9.2 mph - N/A   Scattered Clouds
8:35 PM 50.0 °F - 23.0 °F 35% 30.02 in 10.0 mi WNW 6.9 mph - N/A   Clear
9:15 PM 46.4 °F 44.3 °F 23.0 °F 40% 30.03 in 10.0 mi NW 4.6 mph - N/A   Clear
9:35 PM 46.4 °F - 23.0 °F 40% 30.04 in 10.0 mi Calm Calm - N/A   Clear
9:55 PM 46.4 °F 45.2 °F 23.0 °F 40% 30.05 in 10.0 mi NW 3.5 mph - N/A   Clear
10:15 PM 44.6 °F 41.4 °F 23.0 °F 43% 30.06 in 10.0 mi NW 5.8 mph - N/A   Clear
10:35 PM 44.6 °F 39.7 °F 23.0 °F 43% 30.06 in 10.0 mi North 9.2 mph - N/A   Clear
10:55 PM 44.6 °F 40.2 °F 23.0 °F 43% 30.07 in 10.0 mi NNW 8.1 mph - N/A   Clear
11:15 PM 44.6 °F 40.2 °F 21.2 °F 39% 30.08 in 10.0 mi North 8.1 mph - N/A   Clear
11:35 PM 44.6 °F 41.4 °F 19.4 °F 37% 30.08 in 10.0 mi NNW 5.8 mph - N/A   Clear
11:55 PM 44.6 °F 40.7 °F 23.0 °F 43% 30.08 in 5.0 mi NW 6.9 mph - N/A   Clear